H1 CPF 1 NER 2022 1 31 9 5311 glonass143 H2 2007501 9143 46805 2022 1 31 0 0 0 2022 2 3 23 45 0 900 1 1 0 0 0 H9 10 0 59610 0.00000 0 9824556.770 4749335.884 -23049531.004 10 0 59610 900.00000 0 8679878.384 7340317.002 -22829245.629 10 0 59610 1800.00000 0 7745901.958 9956674.421 -22165349.112 10 0 59610 2700.00000 0 7035646.444 12530220.510 -21070773.974 10 0 59610 3600.00000 0 6549759.143 14992525.254 -19566817.726 10 0 59610 4500.00000 0 6276649.528 17277570.081 -17682727.545 10 0 59610 5400.00000 0 6193151.465 19324312.726 -15455130.857 10 0 59610 6300.00000 0 6265685.009 21079056.791 -12927322.684 10 0 59610 7200.00000 0 6451868.007 22497527.626 -10148423.530 10 0 59610 8100.00000 0 6702508.730 23546568.395 -7172424.019 10 0 59610 9000.00000 0 6963894.738 24205386.011 -4057134.813 10 0 59610 9900.00000 0 7180280.670 24466295.333 -863062.403 10 0 59610 10800.00000 0 7296469.212 24334931.147 2347767.229 10 0 59610 11700.00000 0 7260375.594 23829919.704 5513013.982 10 0 59610 12600.00000 0 7025466.686 22982024.298 8571234.255 10 0 59610 13500.00000 0 6552971.097 21832801.405 11463073.106 10 0 59610 14400.00000 0 5813766.406 20432824.392 14132414.698 10 0 59610 15300.00000 0 4789863.345 18839549.729 16527468.667 10 0 59610 16200.00000 0 3475423.722 17114915.532 18601771.545 10 0 59610 17100.00000 0 1877268.453 15322773.045 20315084.231 10 0 59610 18000.00000 0 14853.477 13526258.531 21634168.535 10 0 59610 18900.00000 0 -2080286.568 11785215.104 22533428.353 10 0 59610 19800.00000 0 -4365604.886 10153771.704 22995403.628 10 0 59610 20700.00000 0 -6789076.074 8678179.725 23011107.933 10 0 59610 21600.00000 0 -9291134.146 7394996.842 22580203.478 10 0 59610 22500.00000 0 -11806935.772 6329693.108 21711010.193 10 0 59610 23400.00000 0 -14268855.762 5495736.849 20420348.508 10 0 59610 24300.00000 0 -16609112.156 4894197.880 18733218.489 10 0 59610 25200.00000 0 -18762412.637 4513884.086 16682320.865 10 0 59610 26100.00000 0 -20668512.691 4332005.198 14307428.570 10 0 59610 27000.00000 0 -22274579.329 4315335.483 11654620.199 10 0 59610 27900.00000 0 -23537261.950 4421826.090 8775389.565 10 0 59610 28800.00000 0 -24424383.703 4602598.796 5725648.190 10 0 59610 29700.00000 0 -24916182.477 4804236.573 2564639.839 10 0 59610 30600.00000 0 -25006049.267 4971273.703 -646211.894 10 0 59610 31500.00000 0 -24700732.741 5048779.455 -3844500.156 10 0 59610 32400.00000 0 -24020001.305 4984925.203 -6968051.911 10 0 59610 33300.00000 0 -22995776.864 4733425.354 -9956141.247 10 0 59610 34200.00000 0 -21670776.830 4255747.794 -12750674.580 10 0 59610 35100.00000 0 -20096721.733 3522999.189 -15297324.144 10 0 59610 36000.00000 0 -18332184.066 2517404.371 -17546587.245 10 0 59610 36900.00000 0 -16440169.095 1233316.180 -19454750.340 10 0 59610 37800.00000 0 -14485529.431 -322287.872 -20984739.135 10 0 59610 38700.00000 0 -12532321.912 -2129844.190 -22106838.337 10 0 59610 39600.00000 0 -10641217.557 -4157776.308 -22799267.270 10 0 59610 40500.00000 0 -8867072.731 -6363579.735 -23048600.626 10 0 59610 41400.00000 0 -7256762.652 -8695374.017 -22850026.537 10 0 59610 42300.00000 0 -5847367.184 -11093857.967 -22207437.326 10 0 59610 43200.00000 0 -4664783.850 -13494587.266 -21133351.456 10 0 59610 44100.00000 0 -3722825.015 -15830480.166 -19648668.302 10 0 59610 45000.00000 0 -3022835.895 -18034447.316 -17782260.555 10 0 59610 45900.00000 0 -2553848.145 -20042036.618 -15570412.079 10 0 59610 46800.00000 0 -2293261.327 -21793983.194 -13056111.962 10 0 59610 47700.00000 0 -2208022.456 -23238558.315 -10288218.365 10 0 59610 48600.00000 0 -2256252.851 -24333619.528 -7320508.311 10 0 59610 49500.00000 0 -2389252.682 -25048276.524 -4210631.780 10 0 59610 50400.00000 0 -2553797.762 -25364103.328 -1018990.655 10 0 59610 51300.00000 0 -2694630.732 -25275846.399 2192435.593 10 0 59610 52200.00000 0 -2757040.650 -24791599.351 5361294.396 10 0 59610 53100.00000 0 -2689421.345 -23932437.385 8426071.000 10 0 59610 54000.00000 0 -2445699.775 -22731527.223 11327282.088 10 0 59610 54900.00000 0 -1987531.322 -21232750.243 14008628.808 10 0 59610 55800.00000 0 -1286168.771 -19488896.888 16418086.771 10 0 59610 56700.00000 0 -323925.647 -17559508.144 18508912.120 10 0 59610 57600.00000 0 904828.424 -15508454.446 20240544.490 10 0 59610 58500.00000 0 2393182.922 -13401353.066 21579389.831 10 0 59610 59400.00000 0 4121733.500 -11302931.498 22499468.506 10 0 59610 60300.00000 0 6059160.101 -9274446.229 22982916.660 10 0 59610 61200.00000 0 8163313.117 -7371263.916 23020331.602 10 0 59610 62100.00000 0 10382763.607 -5640704.901 22610954.800 10 0 59610 63000.00000 0 12658754.309 -4120238.062 21762689.042 10 0 59610 63900.00000 0 14927471.351 -2836101.442 20491949.222 10 0 59610 64800.00000 0 17122543.254 -1802405.317 18823349.247 10 0 59610 65700.00000 0 19177664.066 -1020754.385 16789230.502 10 0 59610 66600.00000 0 21029231.926 -480404.231 14429040.315 10 0 59610 67500.00000 0 22618893.464 -158944.847 11788571.734 10 0 59610 68400.00000 0 23895887.888 -23481.933 8919078.648 10 0 59610 69300.00000 0 24819092.607 -32265.756 5876282.998 10 0 59610 70200.00000 0 25358684.477 -136698.325 2719293.071 10 0 59610 71100.00000 0 25497346.599 -283633.544 -490546.185 10 0 59610 72000.00000 0 25230969.581 -417872.402 -3690848.108 10 0 59610 72900.00000 0 24568817.394 -484746.872 -6819400.921 10 0 59610 73800.00000 0 23533150.558 -432682.208 -9815381.722 10 0 59610 74700.00000 0 22158322.286 -215628.250 -12620543.557 10 0 59610 75600.00000 0 20489385.544 204744.188 -15180351.885 10 0 59610 76500.00000 0 18580269.553 857175.802 -17445047.913 10 0 59610 77400.00000 0 16491602.416 1759360.036 -19370617.714 10 0 59610 78300.00000 0 14288271.300 2916955.700 -20919648.250 10 0 59610 79200.00000 0 12036822.370 4323113.545 -22062053.776 10 0 59610 80100.00000 0 9802809.272 5958537.660 -22775658.708 10 0 59610 81000.00000 0 7648200.744 7792080.049 -23046626.071 10 0 59610 81900.00000 0 5628955.124 9781844.389 -22869723.566 10 0 59610 82800.00000 0 3792862.446 11876753.503 -22248422.468 10 0 59610 83700.00000 0 2177743.260 14018515.829 -21194827.710 10 0 59610 84600.00000 0 810078.282 16143909.348 -19729440.658 10 0 59610 85500.00000 0 -295875.029 18187288.127 -17880759.219 10 0 59611 0.00000 0 -1138443.340 20083207.098 -15684723.174 10 0 59611 900.00000 0 -1728362.446 21769056.750 -13184014.103 10 0 59611 1800.00000 0 -2088074.022 23187595.331 -10427226.417 10 0 59611 2700.00000 0 -2250526.547 24289276.211 -7467921.522 10 0 59611 3600.00000 0 -2257530.933 25034270.528 -4363586.346 10 0 59611 4500.00000 0 -2157741.788 25394101.496 -1174515.455 10 0 59611 5400.00000 0 -2004350.421 25352821.829 2037361.146 10 0 59611 6300.00000 0 -1852587.938 24907684.990 5209681.557 10 0 59611 7200.00000 0 -1757144.635 24069282.282 8280863.108 10 0 59611 8100.00000 0 -1769615.438 22861140.184 11191297.347 10 0 59611 9000.00000 0 -1936079.830 21318794.980 13884505.590 10 0 59611 9900.00000 0 -2294918.948 19488383.568 16308232.486 10 0 59611 10800.00000 0 -2874962.413 17424809.472 18415456.655 10 0 59611 11700.00000 0 -3694043.483 15189560.618 20165299.118 10 0 59611 12600.00000 0 -4758023.914 12848269.817 21523812.349 10 0 59611 13500.00000 0 -6060330.211 10468119.256 22464635.231 10 0 59611 14400.00000 0 -7582021.629 8115196.583 22969501.814 10 0 59611 15300.00000 0 -9292388.084 5851911.945 23028594.409 10 0 59611 16200.00000 0 -11150054.118 3734582.636 22640734.552 10 0 59611 17100.00000 0 -13104544.078 1811284.845 21813408.180 10 0 59611 18000.00000 0 -15098244.328 120061.091 20562624.386 10 0 59611 18900.00000 0 -17068681.793 -1312443.042 18912610.108 10 0 59611 19800.00000 0 -18951024.744 -2471856.896 16895346.017 10 0 59611 20700.00000 0 -20680702.108 -3356441.592 14549951.974 10 0 59611 21600.00000 0 -22196032.397 -3976911.620 11921933.173 10 0 59611 22500.00000 0 -23440752.461 -4355729.375 9062300.920 10 0 59611 23400.00000 0 -24366340.084 -4525902.903 6026584.655 10 0 59611 24300.00000 0 -24934032.714 -4529338.171 2873754.087 10 0 59611 25200.00000 0 -25116457.103 -4414816.035 -334927.671 10 0 59611 26100.00000 0 -24898800.750 -4235680.060 -3537097.369 10 0 59611 27000.00000 0 -24279475.273 -4047333.755 -6670507.686 10 0 59611 27900.00000 0 -23270243.206 -3904654.023 -9674241.882 10 0 59611 28800.00000 0 -21895802.383 -3859431.137 -12489902.672 10 0 59611 29700.00000 0 -20192844.999 -3957944.590 -15062751.640 10 0 59611 30600.00000 0 -18208630.600 -4238778.273 -17342776.558 10 0 59611 31500.00000 0 -15999132.756 -4730968.235 -19285665.464 10 0 59611 32400.00000 0 -13626836.996 -5452562.108 -20853668.518 10 0 59611 33300.00000 0 -11158282.026 -6409651.800 -22016330.976 10 0 59611 34200.00000 0 -8661446.949 -7595920.936 -22751083.271 10 0 59611 35100.00000 0 -6203093.233 -8992726.864 -23043677.134 10 0 59611 36000.00000 0 -3846171.886 -10569714.504 -22888459.676 10 0 59611 36900.00000 0 -1647403.325 -12285936.971 -22288480.480 10 0 59611 37800.00000 0 344870.013 -14091436.663 -21255429.891 10 0 59611 38700.00000 0 2092469.881 -15929221.229 -19809409.853 10 0 59611 39600.00000 0 3568733.836 -17737552.165 -17978541.781 10 0 59611 40500.00000 0 4759377.209 -19452450.713 -15798419.016 10 0 59611 41400.00000 0 5662830.818 -21010316.463 -13311414.304 10 0 59611 42300.00000 0 6290041.668 -22350549.180 -10565855.667 10 0 59611 43200.00000 0 6663746.527 -23418064.096 -7615086.534 10 0 59611 44100.00000 0 6817250.267 -24165595.246 -4516428.326 10 0 59611 45000.00000 0 6792761.686 -24555690.129 -1330065.811 10 0 59611 45900.00000 0 6639358.151 -24562311.912 1882122.978 10 0 59611 46800.00000 0 6410665.973 -24171981.815 5057769.298 10 0 59611 47700.00000 0 6162355.335 -23384413.603 8135225.009 10 0 59611 48600.00000 0 5949556.316 -22212613.502 11054758.905 10 0 59611 49500.00000 0 5824305.738 -20682441.189 13759714.713 10 0 59611 50400.00000 0 5833133.088 -18831650.200 16197608.208 10 0 59611 51300.00000 0 6014887.747 -16708447.698 18321142.357 10 0 59611 52200.00000 0 6398899.481 -14369633.516 20089121.160 10 0 59611 53100.00000 0 7003549.968 -11878395.840 21467244.886 10 0 59611 54000.00000 0 7835315.926 -9301854.847 22428771.871 10 0 59611 54900.00000 0 8888324.577 -6708455.901 22955034.623 10 0 59611 55800.00000 0 10144440.828 -4165320.012 23035800.674 10 0 59611 56700.00000 0 11573883.405 -1735660.749 22669471.500 10 0 59611 57600.00000 0 13136345.171 523626.008 21863115.771 10 0 59611 58500.00000 0 14782571.804 2564100.248 20632336.119 10 0 59611 59400.00000 0 16456333.910 4347556.020 19000971.619 10 0 59611 60300.00000 0 18096711.068 5847366.569 17000641.167 10 0 59611 61200.00000 0 19640593.017 7049341.161 14670135.908 10 0 59611 62100.00000 0 21025293.823 7952058.656 12054671.763 10 0 59611 63000.00000 0 22191169.799 8566664.675 9205015.858 10 0 59611 63900.00000 0 23084131.282 8916141.533 6176503.337 10 0 59611 64800.00000 0 23657942.511 9034082.382 3027963.363 10 0 59611 65700.00000 0 23876212.438 8963021.936 -179424.929 10 0 59611 66600.00000 0 23713991.971 8752394.892 -3383323.974 10 0 59611 67500.00000 0 23158909.676 8456209.137 -6521453.252 10 0 59611 68400.00000 0 22211797.283 8130532.930 -9532804.527 10 0 59611 69300.00000 0 20886777.910 7830903.211 -12358832.468 10 0 59611 70200.00000 0 19210812.616 7609765.563 -14944596.944 10 0 59611 71100.00000 0 17222723.728 7514054.923 -17239834.308 10 0 59611 72000.00000 0 14971735.515 7583020.112 -19199936.429 10 0 59611 72900.00000 0 12515592.996 7846384.755 -20786818.382 10 0 59611 73800.00000 0 9918337.247 8322922.861 -21969658.019 10 0 59611 74700.00000 0 7247829.932 9019509.616 -22725493.247 10 0 59611 75600.00000 0 4573129.960 9930687.896 -23039665.805 10 0 59611 76500.00000 0 1961831.122 11038769.206 -22906103.327 10 0 59611 77400.00000 0 -522528.909 12314465.218 -22327434.560 10 0 59611 78300.00000 0 -2822881.170 13718023.873 -21314935.801 10 0 59611 79200.00000 0 -4890760.059 15200822.779 -19888309.748 10 0 59611 80100.00000 0 -6688072.169 16707353.447 -18075301.108 10 0 59611 81000.00000 0 -8188426.814 18177513.456 -15911156.362 10 0 59611 81900.00000 0 -9377974.084 19549110.689 -13437938.001 10 0 59611 82800.00000 0 -10255716.721 20760474.638 -10703706.437 10 0 59611 83700.00000 0 -10833284.272 21753065.237 -7761585.367 10 0 59611 84600.00000 0 -11134180.411 22473969.588 -4668728.640 10 0 59611 85500.00000 0 -11192536.417 22878181.510 -1485208.886 10 0 59612 0.00000 0 -11051424.605 22930567.895 1727150.121 10 0 59612 900.00000 0 -10760803.824 22607438.911 4905976.148 10 0 59612 1800.00000 0 -10375184.896 21897655.795 7989558.203 10 0 59612 2700.00000 0 -9951115.098 20803229.454 10918045.322 10 0 59612 3600.00000 0 -9544588.651 19339384.302 13634606.679 10 0 59612 4500.00000 0 -9208492.932 17534084.366 16086532.167 10 0 59612 5400.00000 0 -8990198.439 15427041.129 18226251.996 10 0 59612 6300.00000 0 -8929394.321 13068244.044 20012255.873 10 0 59612 7200.00000 0 -9056260.771 10516074.577 21409894.358 10 0 59612 8100.00000 0 -9390055.338 7835081.699 22392047.434 10 0 59612 9000.00000 0 -9938172.814 5093510.588 22939647.912 10 0 59612 9900.00000 0 -10695718.533 2360686.495 23042049.945 10 0 59612 10800.00000 0 -11645613.488 -295638.547 22697235.882 10 0 59612 11700.00000 0 -12759227.561 -2811867.033 21911857.538 10 0 59612 12600.00000 0 -13997515.088 -5130959.052 20701110.936 10 0 59612 13500.00000 0 -15312606.066 -7204558.330 19088446.600 10 0 59612 14400.00000 0 -16649787.182 -8994753.776 17105120.410 10 0 59612 15300.00000 0 -17949790.358 -10475404.007 14789593.058 10 0 59612 16200.00000 0 -19151293.388 -11632970.442 12186789.024 10 0 59612 17100.00000 0 -20193528.052 -12466824.901 9347228.711 10 0 59612 18000.00000 0 -21018886.119 -12989019.494 6326050.157 10 0 59612 18900.00000 0 -21575413.437 -13223529.155 3181938.963 10 0 59612 19800.00000 0 -21819086.598 -13204999.404 -24012.863 10 0 59612 20700.00000 0 -21715775.552 -12977052.759 -3229496.646 10 0 59612 21600.00000 0 -21242808.612 -12590226.056 -6372201.907 10 0 59612 22500.00000 0 -20390072.897 -12099626.576 -9391032.127 10 0 59612 23400.00000 0 -19160602.919 -11562406.842 -12227297.076 10 0 59612 24300.00000 0 -17570631.584 -11035165.674 -14825857.933 10 0 59612 25200.00000 0 -15649100.594 -10571386.098 -17136202.451 10 0 59612 26100.00000 0 -13436650.108 -10219019.062 -19113428.850 10 0 59612 27000.00000 0 -10984129.387 -10018315.560 -20719119.250 10 0 59612 27900.00000 0 -8350690.136 -9999999.102 -21922085.735 10 0 59612 28800.00000 0 -5601541.832 -10183855.891 -22698974.776 10 0 59612 29700.00000 0 -2805462.105 -10577802.354 -23034718.639 10 0 59612 30600.00000 0 -32165.394 -11177469.435 -22922825.439 10 0 59612 31500.00000 0 2650361.135 -11966321.282 -22365502.527 10 0 59612 32400.00000 0 5178444.316 -12916303.469 -21373611.145 10 0 59612 33300.00000 0 7495127.590 -13988993.674 -19966453.353 10 0 59612 34200.00000 0 9552290.375 -15137206.580 -18171395.434 10 0 59612 35100.00000 0 11312397.078 -16306985.734 -16023335.007 10 0 59612 36000.00000 0 12749804.003 -17439898.738 -13564022.043 10 0 59612 36900.00000 0 13851570.814 -18475539.335 -10841246.852 10 0 59612 37800.00000 0 14617743.991 -19354131.122 -7907910.691 10 0 59612 38700.00000 0 15061101.776 -20019123.224 -4820996.960 10 0 59612 39600.00000 0 15206372.624 -20419668.467 -1640463.136 10 0 59612 40500.00000 0 15088961.325 -20512879.423 1571924.906 10 0 59612 41400.00000 0 14753237.635 -20265767.004 4753793.332 10 0 59612 42300.00000 0 14250460.512 -19656779.595 7843371.834 10 0 59612 43200.00000 0 13636426.428 -18676877.542 10780692.454 10 0 59612 44100.00000 0 12968941.565 -17330097.313 13508752.323 10 0 59612 45000.00000 0 12305225.014 -15633581.152 15974617.644 10 0 59612 45900.00000 0 11699352.738 -13617070.363 18130447.684 10 0 59612 46800.00000 0 11199850.077 -11321882.734 19934419.268 10 0 59612 47700.00000 0 10847534.184 -8799416.117 21351534.219 10 0 59612 48600.00000 0 10673697.040 -6109239.718 22354294.697 10 0 59612 49500.00000 0 10698705.375 -3316851.564 22923233.895 10 0 59612 50400.00000 0 10931076.258 -491194.523 23047292.260 10 0 59612 51300.00000 0 11367067.287 2297967.094 22724032.299 10 0 59612 52200.00000 0 11990798.845 4982702.500 21959687.914 10 0 59612 53100.00000 0 12774903.680 7499491.771 20769047.186 10 0 59612 54000.00000 0 13681677.129 9791619.559 19175170.528 10 0 59612 54900.00000 0 14664680.304 11811286.698 17208949.063 10 0 59612 55800.00000 0 15670729.552 13521352.561 14908511.160 10 0 59612 56700.00000 0 16642189.073 14896636.380 12318487.869 10 0 59612 57600.00000 0 17519470.656 15924723.850 9489150.801 10 0 59612 58500.00000 0 18243635.403 16606245.831 6475438.734 10 0 59612 59400.00000 0 18758987.673 16954618.091 3335891.495 10 0 59612 60300.00000 0 19015551.482 16995253.597 131511.735 10 0 59612 61200.00000 0 18971324.178 16764281.115 -3075423.002 10 0 59612 62100.00000 0 18594211.454 16306824.783 -6222574.436 10 0 59612 63000.00000 0 17863561.007 15674917.981 -9248759.827 10 0 59612 63900.00000 0 16771229.096 14925140.257 -12095145.941 10 0 59612 64800.00000 0 15322133.919 14116077.902 -14706396.967 10 0 59612 65700.00000 0 13534271.468 13305716.073 -17031753.567 10 0 59612 66600.00000 0 11438192.209 12548873.191 -19026021.630 10 0 59612 67500.00000 0 9075959.663 11894786.348 -20650451.477 10 0 59612 68400.00000 0 6499633.680 11384949.854 -21873490.457 10 0 59612 69300.00000 0 3769341.142 11051298.199 -22671394.505 10 0 59612 70200.00000 0 951013.972 10914809.917 -23028687.190 10 0 59612 71100.00000 0 -1886111.991 10984591.044 -22938457.706 10 0 59612 72000.00000 0 -4672133.671 11257476.512 -22402492.392 10 0 59612 72900.00000 0 -7339144.029 11718166.050 -21431237.527 10 0 59612 73800.00000 0 -9823811.974 12339888.660 -20043594.298 10 0 59612 74700.00000 0 -12069772.318 13085567.545 -18266549.968 10 0 59612 75600.00000 0 -14029727.289 13909436.336 -16134652.360 10 0 59612 76500.00000 0 -15667173.060 14759038.475 -13689337.669 10 0 59612 77400.00000 0 -16957680.284 15577525.444 -10978124.581 10 0 59612 78300.00000 0 -17889676.329 16306156.892 -8053690.162 10 0 59612 79200.00000 0 -18464697.670 16886897.077 -4972845.442 10 0 59612 80100.00000 0 -18697103.051 17264997.899 -1795430.670 10 0 59612 81000.00000 0 -18613260.656 17391459.282 1416848.107 10 0 59612 81900.00000 0 -18250244.649 17225262.727 4601618.369 10 0 59612 82800.00000 0 -17654096.923 16735283.436 7697052.658 10 0 59612 83700.00000 0 -16877728.214 15901799.935 10643068.583 10 0 59612 84600.00000 0 -15978547.688 14717537.031 13382493.860 10 0 59612 85500.00000 0 -15015921.413 13188197.668 15862173.636 10 0 59613 0.00000 0 -14048567.103 11332460.789 18033998.647 10 0 59613 900.00000 0 -13131994.383 9181443.412 19855835.680 10 0 59613 1800.00000 0 -12316099.429 6777651.130 21292339.858 10 0 59613 2700.00000 0 -11643013.126 4173456.490 22315637.478 10 0 59613 3600.00000 0 -11145294.084 1429169.999 22905863.728 10 0 59613 4500.00000 0 -10844541.555 -1389218.018 23051546.555 10 0 59613 5400.00000 0 -10750486.238 -4212531.905 22749829.384 10 0 59613 6300.00000 0 -10860596.978 -6971039.129 22006528.501 10 0 59613 7200.00000 0 -11160219.846 -9597104.617 20836023.859 10 0 59613 8100.00000 0 -11623243.910 -12027761.843 19260985.089 10 0 59613 9000.00000 0 -12213265.996 -14207094.813 17311937.439 10 0 59613 9900.00000 0 -12885205.832 -16088332.566 15026675.405 10 0 59613 10800.00000 0 -13587303.957 -17635569.686 12449534.694 10 0 59613 11700.00000 0 -14263418.566 -18825041.594 9630535.903 10 0 59613 12600.00000 0 -14855524.528 -19645901.711 6624416.086 10 0 59613 13500.00000 0 -15306309.084 -20100468.411 3489566.649 10 0 59613 14400.00000 0 -15561754.266 -20203931.820 286898.103 10 0 59613 15300.00000 0 -15573596.340 -19983533.181 -2921346.006 10 0 59613 16200.00000 0 -15301557.538 -19477251.904 -6072802.558 10 0 59613 17100.00000 0 -14715254.789 -18732056.138 -9106205.574 10 0 59613 18000.00000 0 -13795703.705 -17801791.302 -11962581.820 10 0 59613 18900.00000 0 -12536353.223 -16744796.278 -14586401.455 10 0 59613 19800.00000 0 -10943606.045 -15621348.426 -16926660.873 10 0 59613 20700.00000 0 -9036801.899 -14491045.762 -18937876.249 10 0 59613 21600.00000 0 -6847663.228 -13410237.007 -20580968.397 10 0 59613 22500.00000 0 -4419225.508 -12429608.020 -21824021.795 10 0 59613 23400.00000 0 -1804296.129 -11592026.292 -22642903.233 10 0 59613 24300.00000 0 936494.647 -10930734.001 -23021728.438 10 0 59613 25200.00000 0 3736970.183 -10467965.302 -22953168.012 10 0 59613 26100.00000 0 6527917.229 -10214045.536 -22438587.106 10 0 59613 27000.00000 0 9239725.274 -10167009.676 -21488016.413 10 0 59613 27900.00000 0 11805046.434 -10312755.490 -20119955.211 10 0 59613 28800.00000 0 14161365.863 -10625724.436 -18361010.341 10 0 59613 29700.00000 0 16253376.551 -11070081.139 -16245378.061 10 0 59613 30600.00000 0 18035060.395 -11601341.328 -13814178.669 10 0 59613 31500.00000 0 19471389.568 -12168379.272 -11114656.745 10 0 59613 32400.00000 0 20539578.109 -12715729.683 -8199262.351 10 0 59613 33300.00000 0 21229832.354 -13186086.648 -5124631.010 10 0 59613 34200.00000 0 21545569.766 -13522893.712 -1950482.390 10 0 59613 35100.00000 0 21503098.038 -13672915.398 1261540.795 10 0 59613 36000.00000 0 21130768.946 -13588681.111 4449070.865 10 0 59613 36900.00000 0 20467643.488 -13230697.793 7550226.628 10 0 59613 37800.00000 0 19561725.307 -12569337.445 10504814.456 10 0 59613 38700.00000 0 18467837.450 -11586319.317 13255495.507 10 0 59613 39600.00000 0 17245232.314 -10275723.724 15748896.337 10 0 59613 40500.00000 0 15955035.618 -8644494.093 17936641.515 10 0 59613 41400.00000 0 14657631.946 -6712405.257 19776288.533 10 0 59613 42300.00000 0 13410101.544 -4511498.428 21232147.269 10 0 59613 43200.00000 0 12263815.667 -2085005.322 22275968.699 10 0 59613 44100.00000 0 11262290.844 514194.873 22887490.073 10 0 59613 45000.00000 0 10439391.532 3225522.587 23054826.437 10 0 59613 45900.00000 0 9817955.885 5982969.347 22774701.298 10 0 59613 46800.00000 0 9408901.745 8717600.536 22052512.080 10 0 59613 47700.00000 0 9210849.937 11360186.578 20902229.004 10 0 59613 48600.00000 0 9210280.383 13843854.413 19346129.017 10 0 59613 49500.00000 0 9382214.365 16106650.017 17414369.337 10 0 59613 50400.00000 0 9691394.257 18093906.086 15144408.252 10 0 59613 51300.00000 0 10093911.151 19760316.900 12580283.633 10 0 59613 52200.00000 0 10539211.883 21071634.294 9771762.477 10 0 59613 53100.00000 0 10972400.796 22005914.084 6773377.463 10 0 59613 54000.00000 0 11336738.934 22554261.069 3643368.903 10 0 59613 54900.00000 0 11576234.709 22721041.578 442552.510 10 0 59613 55800.00000 0 11638215.974 22523554.797 -2766864.744 10 0 59613 56700.00000 0 11475773.938 21991177.068 -5922497.324 10 0 59613 57600.00000 0 11049974.629 21164015.483 -8962998.242 10 0 59613 58500.00000 0 10331743.314 20091127.981 -11829256.226 10 0 59613 59400.00000 0 9303341.101 18828385.419 -14465549.085 10 0 59613 60300.00000 0 7959370.157 17436066.198 -16820630.339 10 0 59613 61200.00000 0 6307264.014 15976285.249 -18848727.566 10 0 59613 62100.00000 0 4367241.123 14510365.939 -20510432.945 10 0 59613 63000.00000 0 2171722.468 13096265.644 -21773468.755 10 0 59613 63900.00000 0 -235763.341 11786163.249 -22613313.102 10 0 59613 64800.00000 0 -2802142.719 10624309.666 -23013674.135 10 0 59613 65700.00000 0 -5466763.135 9645231.195 -22966803.905 10 0 59613 66600.00000 0 -8163681.306 8872360.539 -22473646.145 10 0 59613 67500.00000 0 -10824179.044 8317152.169 -21543815.416 10 0 59613 68400.00000 0 -13379402.720 7978718.308 -20195408.205 10 0 59613 69300.00000 0 -15763017.131 7843999.973 -18454649.701 10 0 59613 70200.00000 0 -17913763.943 7888465.018 -16355383.059 10 0 59613 71100.00000 0 -19777818.803 8077302.982 -13938410.899 10 0 59613 72000.00000 0 -21310849.408 8367065.707 -11250701.721 10 0 59613 72900.00000 0 -22479689.325 8707683.904 -8344476.509 10 0 59613 73800.00000 0 -23263558.310 9044773.952 -5276193.144 10 0 59613 74700.00000 0 -23654778.730 9322137.020 -2105448.543 10 0 59613 75600.00000 0 -23658958.884 9484344.359 1106180.091 10 0 59613 76500.00000 0 -23294636.331 9479299.022 4296332.121 10 0 59613 77400.00000 0 -22592396.960 9260665.248 7403074.860 10 0 59613 78300.00000 0 -21593507.601 8790062.332 10366105.705 10 0 59613 79200.00000 0 -20348120.237 8038929.825 13127921.537 10 0 59613 80100.00000 0 -18913123.818 6989984.772 15634932.559 10 0 59613 81000.00000 0 -17349734.204 5638208.922 17838499.134 10 0 59613 81900.00000 0 -15720923.458 3991323.560 19695871.816 10 0 59613 82800.00000 0 -14088796.263 2069731.106 21171016.746 10 0 59613 83700.00000 0 -12512023.002 -94075.166 22235310.988 10 0 59613 84600.00000 0 -11043436.487 -2456609.875 22868094.895 10 0 59613 85500.00000 0 -9727892.281 -4964958.140 23057071.263 99